[[{"header":{"parameterUnit":"m.s-1","parameterCategory":1,"la1":30.2991,"la2":30.254,"lo1":-89.0895,"lo2":-89.0444,"dy":0.0017,"dx":0.0017,"nx":28,"ny":28,"refTime":"2025-05-16T21:00:00:Z","depth":0,"parameterNumber":2,"parameterNumberName":"U-component_of_WINDS"},"data":[0,0,0,0,0,0,0,0,0,0,0,0,0,0,0,0,0,0,0,0,0,0,0,0,0,0,0,0,0,0,0,0,0,0,0,0,0,0,0,0,0,0,0,0,0,0,0,0,0,0,0,0,0,0,0,0,0,0,0.4312,0.4314,0,0.4425,0.4427,0.4428,0.4466,0.4465,0.4465,0.4464,0.4581,0.4585,0.4588,0,0,0,0,0,0,0,0,0,0,0,0,0,0.413,0.4133,0.4312,0.4314,0.4315,0.4425,0.4427,0.4428,0.4466,0.4465,0.4465,0.4464,0.458,0.4584,0.4589,0,0,0,0,0,0,0,0,0,0,0,0,0,0.4222,0.4134,0.4312,0.4347,0.4351,0.4425,0.4427,0.4429,0.4466,0.4465,0.4465,0.4464,0.4579,0.4584,0.4589,0.4636,0,0,0.4606,0.4608,0,0,0,0,0,0,0,0,0.4217,0.4229,0.4341,0.4345,0.435,0.4431,0.4405,0.4498,0.4466,0.4423,0.4464,0.4464,0.4532,0.4541,0.4564,0.4642,0.4647,0.4606,0.4609,0.4612,0.4613,0,0,0,0,0,0,0,0.4211,0.4224,0.4357,0.4342,0.4348,0.4357,0.437,0.4423,0.448,0.4426,0.4429,0.4442,0.4534,0.4559,0.4567,0.4649,0.4606,0.4611,0.4614,0.4616,0.4771,0.4772,0,0,0,0,0,0,0.4198,0.4219,0.4354,0.4361,0.428,0.4361,0.4375,0.4406,0.4479,0.449,0.4443,0.4443,0.455,0.4561,0.4571,0.4631,0.4611,0.4616,0.462,0.477,0.4771,0.4772,0,0,0,0,0,0,0.4194,0.421,0.4349,0.4291,0.4309,0.4365,0.4399,0.4408,0.4433,0.4492,0.4502,0.4457,0.455,0.4564,0.462,0.4636,0.4619,0.4624,0.4769,0.477,0.4772,0.4752,0,0,0,0,0,0,0.4189,0.4208,0.4227,0.4291,0.4312,0.4396,0.44,0.4411,0.4442,0.4444,0.4508,0.4518,0.455,0.4612,0.4625,0.4643,0.4628,0.4768,0.477,0.4771,0.4752,0.4753,0.4753,0,0,0,0,0,0.4182,0.4217,0.4227,0.4243,0.4336,0.4396,0.4409,0.4445,0.4443,0.4462,0.45,0.4516,0.4632,0.4617,0.4633,0.4652,0.4767,0.4769,0.4771,0.4751,0.4752,0.4753,0,0,0,0,0,0,0.4153,0.4226,0.4238,0.4295,0.4339,0.4403,0.4428,0.4445,0.4491,0.4491,0.4534,0.4549,0.4601,0.4633,0.4615,0.4702,0.47,0.4706,0.468,0.4681,0.4682,0.4674,0.4632,0,0,0,0,0,0.4154,0.4196,0.4257,0.4301,0.4323,0.4371,0.4399,0.4423,0.4471,0.449,0.4532,0.4578,0.4625,0.4655,0.4701,0.4756,0.4771,0.4777,0.4778,0.4779,0.4783,0.4814,0.4818,0.4779,0.4779,0.4779,0,0,0.4155,0.4199,0.4224,0.4297,0.4334,0.4377,0.4387,0.4433,0.4465,0.4497,0.4552,0.4585,0.4639,0.4695,0.4721,0.4722,0.4797,0.4781,0.4781,0.4785,0.4817,0.482,0.4823,0.478,0.478,0.478,0,0,0.4179,0.4217,0.4258,0.4294,0.435,0.4382,0.4392,0.4453,0.4476,0.4532,0.4557,0.4596,0.4676,0.4713,0.4743,0.478,0.4797,0.4794,0.48,0.483,0.4833,0.4836,0.4849,0.4854,0.4798,0.4798,0.4798,0,0.4173,0.4239,0.4276,0.4321,0.4352,0.4382,0.4424,0.4458,0.4526,0.4547,0.4547,0.4647,0.4686,0.4751,0.476,0.4783,0.4795,0.4788,0.4829,0.4833,0.4836,0.4849,0.4854,0.4798,0.4798,0.4798,0.4798,0,0.423,0.4275,0.4301,0.4366,0.4401,0.4443,0.4487,0.4517,0.4538,0.457,0.4627,0.4674,0.473,0.4747,0.4768,0.4815,0.4814,0.4821,0.482,0.4838,0.4852,0.4857,0.4797,0.4797,0.4797,0.4797,0,0,0.4239,0.4324,0.4333,0.4363,0.4427,0.4463,0.4506,0.4561,0.4586,0.4632,0.467,0.4737,0.4744,0.4777,0.4802,0.4828,0.4855,0.4833,0.4834,0.4835,0.491,0.4905,0.491,0.4866,0.4868,0.4868,0.4906,0,0.4272,0.4352,0.4387,0.4451,0.4493,0.4522,0.456,0.4604,0.4635,0.4675,0.4709,0.4756,0.4761,0.4782,0.4809,0.4846,0.4871,0.4844,0.4903,0.4904,0.4889,0.4917,0.4912,0.4945,0.4911,0.4912,0.4913,0,0.4321,0.4367,0.4435,0.4494,0.4513,0.4547,0.46,0.4638,0.4688,0.4708,0.4745,0.4769,0.4816,0.4812,0.4878,0.4858,0.4884,0.4906,0.4908,0.4916,0.491,0.4926,0.4956,0.4961,0.4921,0.4921,0.492,0,0.4322,0.44,0.4452,0.4476,0.4546,0.4569,0.4599,0.4648,0.4678,0.4724,0.4745,0.4795,0.4824,0.4862,0.4899,0.4893,0.4962,0.496,0.498,0.498,0.4994,0.4993,0.503,0.501,0.501,0.501,0.501,0,0.4355,0.4396,0.4453,0.4484,0.4531,0.457,0.4615,0.4647,0.469,0.4728,0.4756,0.4791,0.4838,0.4879,0.4908,0.4958,0.4971,0.4989,0.4996,0.4987,0.4984,0.5005,0.5003,0.5011,0.5011,0.5011,0.501,0,0.4364,0.4404,0.4461,0.4522,0.4538,0.457,0.4622,0.4654,0.4686,0.4734,0.4747,0.4797,0.4847,0.4887,0.4953,0.4972,0.5025,0.5033,0.5008,0.5012,0.503,0.5028,0.5081,0.509,0.5064,0.5064,0.5064,0,0.4382,0.4415,0.4479,0.4506,0.4536,0.458,0.4611,0.4651,0.4682,0.4741,0.4765,0.4817,0.486,0.4939,0.4981,0.5031,0.5041,0.5056,0.5049,0.5038,0.5042,0.5039,0.5043,0.5057,0.5057,0.5057,0.5057,0,0.4412,0.443,0.4474,0.4525,0.4561,0.4603,0.4646,0.4667,0.4714,0.4748,0.4799,0.4833,0.4899,0.495,0.5005,0.5036,0.5054,0.5059,0.5067,0.5057,0.5042,0.5051,0.5011,0.5058,0.5058,0.5058,0.5058,0.5058,0.4427,0.4456,0.4506,0.4554,0.459,0.4629,0.4662,0.4698,0.4741,0.4798,0.4819,0.4871,0.492,0.4995,0.5026,0.5067,0.5069,0.508,0.5083,0.5085,0.5084,0.5034,0.5077,0.5077,0.5078,0.5078,0.5078,0,0.4457,0.4491,0.4534,0.4593,0.4631,0.4645,0.4693,0.4723,0.4769,0.4813,0.4855,0.4913,0.4963,0.5009,0.506,0.5085,0.5095,0.5097,0.5096,0.5103,0.5079,0.5068,0.5088,0.5088,0.5088,0.5088,0.5088,0.5088,0.4478,0.4529,0.4553,0.4622,0.4655,0.4707,0.4733,0.4769,0.4804,0.4869,0.491,0.4939,0.4984,0.5039,0.5085,0.5097,0.5115,0.5115,0.5129,0.5106,0.5105,0.5103,0.5093,0.5118,0.5118,0.515,0.515,0.515]},{"header":{"parameterUnit":"m.s-1","parameterCategory":1,"la1":30.2991,"la2":30.254,"lo1":-89.0895,"lo2":-89.0444,"dy":0.0017,"dx":0.0017,"nx":28,"ny":28,"refTime":"2025-05-16T21:00:00:Z","depth":0,"parameterNumber":3,"parameterNumberName":"V-component_of_WINDS"},"data":[0,0,0,0,0,0,0,0,0,0,0,0,0,0,0,0,0,0,0,0,0,0,0,0,0,0,0,0,0,0,0,0,0,0,0,0,0,0,0,0,0,0,0,0,0,0,0,0,0,0,0,0,0,0,0,0,0,0,5.1507,5.1507,0,5.1443,5.1442,5.1442,5.1377,5.1376,5.1375,5.1374,5.1303,5.1302,5.1301,0,0,0,0,0,0,0,0,0,0,0,0,0,5.1571,5.157,5.1507,5.1507,5.1506,5.1443,5.1442,5.1441,5.1377,5.1376,5.1375,5.1374,5.1303,5.1302,5.1301,0,0,0,0,0,0,0,0,0,0,0,0,0,5.1528,5.1569,5.1507,5.1466,5.1462,5.1443,5.1442,5.1441,5.1377,5.1376,5.1375,5.1373,5.1304,5.1302,5.1301,5.1316,0,0,5.1296,5.1295,0,0,0,0,0,0,0,0,5.1531,5.1526,5.1473,5.1469,5.1464,5.1417,5.1438,5.1399,5.1377,5.1409,5.1374,5.1373,5.1342,5.1337,5.1327,5.1313,5.131,5.1295,5.1294,5.1294,5.1293,0,0,0,0,0,0,0,5.1534,5.1528,5.1482,5.1472,5.1467,5.145,5.1442,5.1431,5.1383,5.1406,5.1401,5.1395,5.1339,5.1329,5.1325,5.1309,5.1296,5.1294,5.1293,5.1292,5.1306,5.1307,0,0,0,0,0,0,5.1544,5.1531,5.1484,5.148,5.1495,5.145,5.1441,5.1433,5.1383,5.1374,5.1396,5.1392,5.1333,5.1327,5.1322,5.1339,5.1294,5.1292,5.1291,5.1305,5.1306,5.1308,0,0,0,0,0,0,5.1545,5.154,5.1486,5.1504,5.1496,5.145,5.1441,5.1433,5.1423,5.1376,5.1366,5.1395,5.1331,5.1325,5.1319,5.1335,5.1292,5.129,5.1303,5.1305,5.1307,5.1371,0,0,0,0,0,0,5.1547,5.1541,5.1547,5.1505,5.1496,5.1485,5.1442,5.1432,5.1421,5.1415,5.1372,5.1364,5.133,5.1322,5.1318,5.1332,5.1289,5.1301,5.1304,5.1306,5.1367,5.1375,5.1381,0,0,0,0,0,5.155,5.1566,5.1548,5.1542,5.1502,5.1486,5.1481,5.1443,5.1422,5.1428,5.1398,5.1365,5.1335,5.1322,5.1316,5.1331,5.13,5.1303,5.1306,5.1364,5.1373,5.1381,0,0,0,0,0,0,5.1609,5.156,5.1539,5.1542,5.1519,5.1476,5.1481,5.1454,5.1435,5.143,5.1382,5.1373,5.1373,5.1351,5.1338,5.1344,5.1313,5.1315,5.1359,5.1367,5.1374,5.1379,5.1287,0,0,0,0,0,5.1623,5.1615,5.1572,5.1579,5.1569,5.1528,5.1519,5.1492,5.1466,5.1455,5.1424,5.1399,5.1383,5.1374,5.1357,5.1364,5.1354,5.1371,5.1378,5.1384,5.1387,5.139,5.1398,5.1317,5.1317,5.1317,0,0,5.165,5.1623,5.162,5.159,5.1569,5.1562,5.1519,5.1513,5.1506,5.1453,5.1447,5.1424,5.1392,5.1393,5.1392,5.1375,5.1407,5.1388,5.1394,5.1392,5.1394,5.1402,5.1408,5.132,5.1319,5.1319,0,0,5.1697,5.1675,5.168,5.166,5.163,5.1603,5.1604,5.1565,5.1549,5.1542,5.1503,5.1494,5.1468,5.1448,5.1434,5.1476,5.1446,5.1472,5.1509,5.1513,5.1519,5.1524,5.154,5.1546,5.1474,5.1474,5.1474,0,5.1735,5.1723,5.1685,5.1681,5.167,5.1624,5.1628,5.161,5.1576,5.1568,5.155,5.1519,5.1494,5.149,5.1501,5.1491,5.1491,5.1476,5.1522,5.1527,5.1531,5.1546,5.1552,5.1478,5.1477,5.1477,5.1477,0,5.1771,5.1764,5.1771,5.1741,5.173,5.173,5.1692,5.1685,5.166,5.1635,5.1629,5.1598,5.1575,5.1572,5.1546,5.1566,5.1556,5.1531,5.1498,5.1543,5.1556,5.1561,5.1483,5.1481,5.148,5.1479,0,0,5.1851,5.1803,5.1806,5.1793,5.1758,5.1751,5.1749,5.1729,5.1725,5.1702,5.17,5.1681,5.1658,5.1642,5.1614,5.1618,5.1654,5.1591,5.159,5.1605,5.1675,5.1695,5.1702,5.1635,5.1635,5.1636,5.1678,0,5.1892,5.1888,5.1855,5.186,5.1854,5.1811,5.181,5.1788,5.1765,5.1755,5.1728,5.1716,5.1686,5.1677,5.1678,5.165,5.1668,5.1646,5.1631,5.1631,5.1641,5.1709,5.1729,5.177,5.1683,5.1684,5.1684,0,5.1939,5.1923,5.1928,5.1895,5.1891,5.189,5.187,5.1862,5.1836,5.1819,5.1803,5.1772,5.1768,5.1738,5.1732,5.1718,5.171,5.1695,5.1696,5.1693,5.166,5.1708,5.1782,5.1789,5.1692,5.1691,5.169,0,5.1998,5.1977,5.1978,5.1968,5.1929,5.193,5.1914,5.1887,5.1878,5.186,5.1853,5.1834,5.1824,5.181,5.1775,5.1756,5.1773,5.1739,5.1758,5.1759,5.1763,5.1763,5.1837,5.1758,5.1758,5.1757,5.1757,0,5.2047,5.2052,5.2005,5.2005,5.201,5.1972,5.1977,5.1956,5.1934,5.1929,5.1891,5.1887,5.1841,5.1832,5.1804,5.1804,5.1799,5.1785,5.1777,5.1788,5.179,5.1782,5.1778,5.1759,5.1759,5.1758,5.1758,0,5.2113,5.2082,5.208,5.2045,5.2036,5.2041,5.201,5.2009,5.1984,5.1979,5.1976,5.1937,5.1924,5.1889,5.1866,5.1848,5.1856,5.1841,5.1865,5.186,5.1881,5.188,5.1953,5.1961,5.1876,5.1877,5.1878,0,5.2146,5.215,5.2115,5.2111,5.2097,5.2089,5.208,5.2043,5.2035,5.2008,5.201,5.1996,5.1982,5.1964,5.1933,5.1917,5.1902,5.1929,5.1899,5.1911,5.1903,5.1904,5.1904,5.1935,5.1936,5.1937,5.1938,0,5.2209,5.2194,5.2184,5.2169,5.216,5.2146,5.2129,5.2127,5.2085,5.2079,5.2067,5.2057,5.2036,5.2022,5.2001,5.1983,5.1954,5.1948,5.1951,5.1963,5.1977,5.197,5.1883,5.1946,5.1945,5.1945,5.1944,5.1944,5.226,5.2262,5.2239,5.2229,5.2213,5.2199,5.2198,5.2174,5.2164,5.2146,5.2124,5.2116,5.2091,5.206,5.2045,5.2037,5.2021,5.2026,5.2027,5.2029,5.2035,5.1979,5.2033,5.2033,5.2032,5.2032,5.2032,0,5.2322,5.2305,5.2297,5.2276,5.2269,5.2244,5.2225,5.2221,5.2214,5.2195,5.2183,5.2171,5.2158,5.2127,5.2111,5.2111,5.2097,5.2108,5.2107,5.2104,5.2049,5.2048,5.2119,5.2119,5.2119,5.2119,5.2119,5.2119,5.2353,5.2355,5.2338,5.2332,5.2315,5.2308,5.23,5.2287,5.2271,5.226,5.225,5.2231,5.2207,5.219,5.2177,5.2168,5.2164,5.218,5.2167,5.2116,5.2108,5.21,5.2098,5.2179,5.2179,5.2222,5.2222,5.2222]}]]